Wind_Speed
26 26 26 26 26 25 25 25 26 26 27 28 28 28 28 28 28 27 27 27 26 25 25 26 26 26 26 25 24 23 21 21 20 21 19 17 21 20 15 15 15 14 13 12 11 11 10 9 9 9 10 9 10 12 12 14 14 13 14 15 15 16 16 15 11 10 11 8 3 3 9 10 10 13 13 15 12 9 17 19 17 18 14 11 9 7 11 13
26 27 27 27 26 26 26 25 25 26 27 27 28 28 28 28 28 28 28 27 26 26 25 25 26 26 27 26 25 25 23 22 23 23 20 19 20 18 16 17 16 15 14 12 11 10 9 7 7 8 9 9 10 11 11 14 16 15 15 16 17 16 15 12 8 6 4 5 3 2 8 11 12 14 13 16 16 11 13 17 17 16 15 14 9 9 13 13
26 27 27 27 27 26 26 26 26 26 26 27 28 28 28 28 28 28 28 27 27 26 26 25 25 26 26 26 26 26 25 24 25 23 21 20 20 19 19 18 17 16 14 13 12 10 8 6 6 7 9 10 11 12 12 14 16 16 16 17 18 16 14 10 6 4 3 5 2 3 7 9 11 12 14 16 15 14 13 16 19 17 17 15 10 10 13 12
27 27 27 27 27 27 27 26 26 26 26 27 27 28 28 28 29 28 28 27 27 26 26 26 25 25 25 25 26 25 26 25 25 25 23 22 21 20 20 19 19 18 16 15 14 12 10 8 8 9 10 11 12 12 13 14 15 16 18 19 17 13 12 10 8 7 3 3 3 3 9 8 7 9 13 16 15 14 14 15 17 17 17 15 14 12 13 12
27 27 27 26 27 27 27 27 27 27 27 26 27 28 28 28 29 28 28 28 27 26 26 26 26 25 24 25 24 25 25 21 23 27 25 23 23 23 22 21 20 18 17 17 16 15 13 12 12 12 13 13 13 14 14 15 14 14 17 21 20 13 11 9 9 10 9 7 3 3 7 8 9 9 10 14 13 12 13 16 14 12 14 16 16 14 14 12
27 27 27 26 26 26 27 27 27 27 27 27 27 27 28 28 28 28 28 28 27 26 27 26 26 25 24 24 24 24 23 17 18 24 25 24 25 24 24 23 21 19 19 19 18 17 15 14 14 15 15 14 14 15 15 14 14 15 15 19 20 14 10 9 8 11 11 11 7 3 6 8 11 10 9 12 9 8 12 16 13 9 13 16 15 15 14 13
27 27 27 26 26 26 26 27 27 27 28 28 27 27 28 28 28 28 28 27 27 26 27 26 26 26 24 24 24 23 25 23 20 21 22 23 25 25 26 25 23 21 20 20 19 18 16 15 17 16 15 15 14 15 15 14 15 17 16 15 16 14 11 8 6 9 11 14 12 10 12 10 12 11 12 12 6 6 10 12 11 9 14 15 14 14 14 12
28 27 27 26 26 26 26 26 26 27 28 28 28 27 27 27 28 28 28 27 27 26 27 26 26 26 25 25 23 24 27 24 21 23 22 20 22 24 26 26 25 23 21 20 19 18 17 16 18 16 16 16 14 13 14 15 16 19 19 15 13 13 15 11 7 6 6 13 13 11 12 13 14 11 14 14 8 9 10 11 13 9 13 16 15 14 13 11
28 28 27 27 26 26 25 25 26 26 27 28 28 28 27 27 27 28 28 27 27 27 26 26 26 26 26 25 24 26 24 16 15 25 27 22 20 21 24 26 25 24 22 20 19 19 18 18 19 18 17 16 14 14 13 15 17 18 20 18 14 11 14 14 12 8 6 11 12 10 11 14 15 12 14 16 13 13 10 11 13 8 11 17 16 15 12 10
29 28 27 27 26 26 25 25 26 26 26 27 28 28 27 27 27 27 28 27 27 27 26 27 26 26 26 26 26 25 19 14 15 24 28 23 20 20 21 25 25 24 22 21 20 20 20 18 17 17 17 16 15 15 14 16 15 14 16 19 18 14 12 14 15 12 10 12 12 13 13 13 14 15 16 16 16 15 10 13 15 10 13 18 17 15 12 10
29 28 27 27 26 26 25 25 25 25 26 26 27 27 27 27 26 26 27 27 27 26 27 27 26 26 27 28 30 25 19 16 16 25 28 21 20 20 19 21 24 25 23 23 21 21 20 18 16 15 17 17 16 15 15 17 16 13 12 14 18 18 14 14 15 15 13 14 14 14 15 13 15 18 18 16 16 14 14 15 18 16 17 19 18 15 12 10
28 28 27 26 26 26 25 25 25 25 25 25 26 26 27 27 26 26 26 26 26 26 26 27 27 28 28 31 32 26 22 19 16 23 28 21 20 21 20 20 21 24 25 23 22 21 20 18 17 17 17 16 15 15 14 16 18 16 13 12 14 18 18 15 15 16 15 15 15 14 16 16 17 20 18 17 18 15 17 17 16 17 19 19 18 14 12 11
28 27 26 26 26 26 25 24 25 25 24 24 25 25 26 26 26 26 25 25 25 25 26 27 28 28 30 35 32 24 25 26 22 25 26 22 21 23 22 22 21 23 25 24 21 19 19 19 18 19 17 16 15 14 11 11 16 18 16 14 13 16 20 18 15 15 16 16 16 16 17 18 18 20 20 18 18 17 18 17 15 19 21 19 16 13 12 12
26 26 26 26 25 25 25 24 24 24 24 23 24 24 25 25 25 25 24 23 23 24 26 27 28 29 33 35 27 24 29 30 29 29 27 23 22 23 22 22 21 20 23 26 20 14 17 19 19 19 19 19 16 14 13 11 14 18 17 16 16 17 19 20 19 17 18 17 17 19 18 17 17 20 21 19 19 19 19 18 16 19 20 16 15 14 13 13
25 25 25 25 25 25 24 24 23 23 23 23 22 23 23 24 25 24 23 22 22 24 26 27 28 28 33 34 26 26 31 35 34 29 26 24 22 22 23 23 22 20 21 24 22 16 17 19 20 20 20 20 18 16 16 14 14 17 19 18 18 18 17 19 23 20 20 19 18 22 20 17 18 19 20 20 19 19 20 20 16 16 16 15 15 15 15 16
24 24 24 24 24 24 23 23 22 22 22 21 21 21 22 23 23 22 22 21 22 24 25 26 27 28 31 29 24 27 32 35 32 24 24 25 23 23 22 21 23 22 20 22 24 18 16 18 20 21 19 19 20 17 15 15 17 19 20 20 17 19 18 18 25 23 21 21 20 23 23 19 19 20 22 21 20 19 20 22 19 16 16 16 16 16 15 16
23 23 23 23 23 23 23 22 21 21 20 20 20 21 22 22 21 21 20 20 22 24 25 25 27 29 30 26 24 28 31 31 26 23 26 25 24 24 19 18 23 23 19 19 22 18 16 19 20 21 21 20 20 18 17 17 18 19 20 20 17 18 19 17 23 24 23 22 21 23 26 23 18 22 24 21 20 19 19 23 21 19 18 17 16 16 16 17
24 22 22 22 23 22 22 21 21 20 19 18 19 20 20 20 20 20 20 20 22 24 25 26 28 25 21 20 23 23 23 27 25 24 26 24 25 24 19 17 21 22 18 17 20 19 19 22 20 19 22 23 22 21 22 18 17 19 19 19 18 18 20 20 22 25 25 24 21 23 28 28 20 21 23 20 19 19 20 25 22 21 20 17 16 16 15 16
24 23 22 22 22 21 21 21 20 19 18 17 19 19 19 18 18 18 19 21 24 27 26 25 27 24 10 4 12 14 13 19 23 24 24 24 26 25 21 18 18 20 20 19 21 22 21 21 22 22 24 26 25 24 24 20 16 17 18 19 19 17 19 22 20 25 27 25 23 23 24 27 24 22 23 19 18 17 20 25 24 24 21 17 18 18 16 16
25 23 22 21 21 20 20 20 19 18 17 17 18 19 17 13 11 12 17 22 25 25 24 21 20 23 16 3 6 11 12 13 20 22 22 23 25 25 22 19 18 20 23 22 22 23 21 23 26 27 26 25 24 24 23 23 18 16 16 18 19 19 18 20 21 26 26 24 25 23 21 25 25 24 24 19 16 17 22 26 24 23 22 21 23 21 19 17
25 23 22 21 20 19 19 19 18 17 17 17 18 18 15 8 3 9 14 18 20 21 24 22 17 21 21 11 2 11 14 17 21 20 21 24 23 25 25 22 22 23 25 23 20 21 23 26 28 27 25 23 23 22 23 25 23 19 17 17 19 21 18 17 21 29 26 23 25 23 22 24 23 25 24 19 16 17 23 25 21 20 20 22 23 21 21 18
25 23 23 22 19 18 18 17 17 16 16 16 17 17 15 14 11 13 14 14 16 20 23 25 24 24 24 22 14 13 15 18 22 22 22 24 25 26 26 25 25 25 25 24 22 22 26 29 26 24 24 22 22 22 23 25 25 22 19 17 19 20 17 16 20 27 25 23 23 23 23 23 21 24 22 20 18 17 21 22 18 19 21 23 21 19 21 18
26 24 23 22 19 17 17 16 16 15 14 15 16 14 16 19 14 16 18 14 16 20 23 28 31 29 28 28 18 16 20 20 20 23 24 26 28 27 25 27 26 24 25 27 27 25 26 27 24 23 24 24 23 22 23 25 24 23 20 17 18 19 17 17 21 23 23 22 20 21 23 23 20 23 21 20 20 20 19 17 14 16 19 21 21 19 17 16
25 24 22 21 19 16 15 15 14 13 12 12 13 13 18 20 12 14 19 17 20 22 22 25 31 33 31 31 22 20 25 23 19 21 27 29 29 27 25 26 26 25 26 28 28 26 23 22 22 23 24 25 25 23 23 25 23 22 22 18 16 19 20 19 20 20 21 20 19 19 21 24 20 21 20 20 21 23 20 15 14 17 20 17 18 18 15 15
25 24 22 20 18 16 15 14 11 11 10 9 11 12 18 19 12 14 17 14 20 22 20 22 27 33 32 31 27 23 24 25 22 20 27 31 29 28 26 24 26 27 27 27 28 27 23 19 21 25 26 26 26 25 25 25 23 21 23 22 18 16 20 20 19 22 21 20 22 21 17 18 20 21 21 22 21 22 19 16 16 17 20 19 18 18 18 18
26 24 20 19 17 15 14 11 10 10 9 8 9 9 14 16 11 12 12 10 18 19 19 24 27 29 31 34 31 23 21 26 26 21 26 31 28 28 26 23 26 26 25 26 25 27 23 20 22 25 27 27 26 27 25 24 24 21 21 25 21 16 19 19 22 26 22 20 23 25 18 15 19 22 22 24 23 22 20 19 19 18 19 18 20 21 20 22
25 21 19 18 16 14 12 10 10 9 7 5 5 8 13 14 10 8 7 8 16 17 21 24 24 25 30 34 34 28 22 25 29 25 24 29 28 28 26 24 25 24 24 24 24 25 24 22 23 24 27 28 28 28 25 25 26 20 18 23 22 18 19 19 26 26 20 18 20 27 26 19 20 25 24 24 24 23 23 21 21 23 21 19 20 21 21 23
23 20 19 17 15 13 11 10 11 10 9 7 8 13 16 15 12 10 7 5 5 9 23 25 22 20 23 29 35 35 22 18 30 29 22 26 28 29 29 25 24 24 24 25 25 24 24 26 24 24 26 28 29 28 24 25 26 21 17 19 22 21 20 18 23 23 18 18 19 27 29 19 16 27 29 27 26 26 25 22 21 26 28 26 23 20 21 22
23 20 19 17 15 12 11 12 13 13 13 13 11 12 13 13 16 13 6 7 4 11 19 25 21 16 20 28 34 36 23 16 26 29 23 24 28 30 29 26 23 22 24 25 25 22 22 27 26 24 26 26 26 26 24 25 25 23 18 17 20 22 20 19 20 22 18 16 18 25 30 19 12 25 31 28 28 28 26 23 24 27 28 28 26 23 23 24
24 21 19 17 14 11 12 14 13 15 17 15 10 11 12 15 17 12 6 8 11 15 18 23 23 19 25 31 32 34 29 20 22 26 25 23 28 29 25 24 22 22 24 25 26 24 22 24 25 25 25 24 24 24 25 24 23 24 21 18 19 20 21 20 21 24 17 12 18 24 30 23 12 18 29 28 27 28 27 26 26 27 25 25 28 28 27 26
24 22 19 16 13 12 13 14 14 17 19 13 9 12 15 17 16 10 8 11 13 17 19 20 21 22 28 33 31 33 33 25 22 28 28 24 29 31 24 25 26 24 26 27 27 27 24 22 24 26 25 23 22 23 25 23 23 26 24 20 18 17 20 19 19 22 13 9 19 24 27 27 17 16 22 26 28 27 28 28 28 27 24 22 23 25 26 25
23 21 18 15 13 13 14 16 17 19 20 14 12 16 16 15 13 13 12 10 10 17 18 17 20 24 28 31 29 31 34 29 25 29 31 27 30 34 29 28 29 25 26 29 29 28 28 25 23 24 27 26 23 22 25 24 25 28 27 24 19 14 14 13 12 14 10 11 21 24 23 24 22 18 16 22 27 28 30 30 29 29 26 23 22 23 25 26
21 20 17 14 13 13 16 19 18 19 19 15 15 21 16 9 11 21 20 9 6 14 14 15 20 24 28 29 27 29 32 30 27 29 31 28 29 33 31 28 28 25 24 27 28 27 27 26 26 25 26 27 27 25 26 27 28 30 29 26 20 13 8 8 8 8 10 15 21 24 21 19 18 11 10 19 25 29 34 31 29 30 29 28 28 27 27 27
21 19 16 14 14 15 17 19 19 17 15 15 20 21 15 11 13 22 21 11 6 11 11 14 21 24 28 28 25 29 31 29 28 28 29 29 29 33 34 31 30 27 23 25 28 27 23 23 28 29 26 27 30 28 24 26 27 29 29 26 23 20 12 8 8 7 10 15 19 21 16 10 11 12 15 20 20 25 31 28 27 31 30 29 29 29 29 29
21 18 15 15 15 16 19 20 20 17 15 20 23 18 17 18 14 15 16 11 7 11 11 17 23 24 27 26 23 28 31 27 28 29 29 30 30 32 34 34 33 30 26 23 26 28 25 23 27 29 27 28 31 29 24 24 26 27 28 26 26 27 20 12 12 13 12 11 15 14 4 8 15 19 24 26 23 26 30 26 26 29 29 28 27 26 28 30
17 14 14 15 16 17 20 21 20 17 19 24 23 21 25 23 11 7 10 8 7 11 11 17 24 24 24 25 23 28 31 26 27 29 27 28 29 29 32 34 34 33 29 24 23 25 23 23 26 27 27 29 30 30 28 25 24 25 28 30 28 26 23 16 14 17 11 6 11 10 9 16 20 16 20 28 30 29 29 27 26 25 28 29 27 24 25 28
12 12 13 13 15 17 19 21 20 17 20 26 25 24 25 20 10 4 4 3 5 10 10 11 21 24 23 24 24 29 32 28 27 29 25 25 28 29 31 31 32 34 32 26 24 24 22 21 25 28 28 27 27 28 31 28 24 26 29 30 26 23 25 20 12 12 9 5 11 13 16 20 18 13 15 24 27 27 26 26 26 26 27 28 27 24 24 26
11 10 11 12 14 16 18 20 20 18 22 28 26 21 18 17 14 9 5 3 4 9 9 8 15 21 22 23 23 28 32 28 26 28 24 24 26 28 31 30 31 34 32 28 24 22 21 19 22 27 27 25 25 27 31 30 28 28 28 27 25 20 22 21 11 9 9 5 9 12 19 21 19 20 24 26 26 27 27 27 28 28 28 27 26 24 24 24
11 9 9 12 14 15 18 19 20 20 23 25 22 19 18 16 12 6 3 4 5 7 9 10 11 14 17 20 22 27 31 28 26 27 23 23 24 26 30 30 29 32 32 29 25 20 21 18 17 25 27 24 25 29 31 31 30 29 26 26 28 23 20 22 17 13 11 7 7 9 12 14 18 22 29 31 30 30 30 31 32 30 30 28 25 23 23 23
11 10 9 12 15 17 18 17 18 20 21 23 22 19 17 11 8 6 6 7 7 5 7 9 11 13 14 16 19 25 29 26 25 26 22 22 22 24 29 30 28 32 32 30 26 21 21 19 12 20 29 26 27 31 31 30 31 32 29 28 30 27 23 22 22 22 18 9 6 6 6 8 12 19 27 32 34 33 32 33 33 31 29 26 24 23 24 23
12 11 10 14 16 18 18 16 18 18 19 24 25 20 15 12 11 9 7 8 9 5 4 6 9 14 12 10 12 18 26 27 24 24 23 22 21 22 28 30 28 31 32 31 29 23 21 19 13 16 28 30 29 31 29 29 31 32 31 29 29 30 26 17 15 23 25 15 10 10 4 7 10 17 26 31 33 33 32 32 31 30 27 25 25 24 23 21
14 12 11 17 18 17 19 17 16 16 18 22 21 17 15 14 11 6 3 6 8 6 5 7 7 11 7 10 11 10 18 28 25 22 23 23 20 18 23 28 27 29 32 31 30 25 20 17 13 16 25 27 26 26 27 29 31 31 30 29 28 30 30 20 12 18 24 19 16 15 6 6 10 20 29 32 30 31 33 32 30 29 28 28 27 25 22 20
15 12 12 18 20 19 19 16 14 14 16 18 16 14 14 13 11 8 7 7 8 7 4 5 5 6 7 8 11 9 10 21 25 23 21 21 21 18 20 27 27 27 31 30 28 27 22 16 15 18 22 25 25 25 27 28 30 31 31 31 29 29 33 29 19 15 17 17 17 13 4 5 10 18 28 30 25 25 29 30 29 30 31 29 27 24 22 20
11 11 14 19 21 21 19 15 12 13 15 14 14 14 13 12 12 11 9 7 8 7 6 5 5 6 6 5 8 9 8 9 18 24 22 19 21 19 20 25 26 26 29 29 26 28 25 18 18 17 15 18 20 20 25 30 33 34 33 33 32 30 31 30 24 18 14 17 19 9 3 7 12 17 24 26 22 23 27 27 29 31 31 28 25 22 21 20
6 8 16 22 21 21 21 16 11 13 16 15 14 13 13 12 12 10 7 7 8 7 5 6 6 6 6 6 6 10 9 8 9 17 22 21 19 19 20 21 23 25 26 25 23 25 25 21 20 18 13 12 12 15 23 31 33 32 32 33 33 31 29 26 25 21 14 16 21 10 10 14 16 19 24 24 22 25 26 26 28 27 27 25 23 22 21 20
8 9 16 22 22 21 21 17 13 13 16 14 11 13 14 13 11 9 9 8 9 8 6 6 6 6 7 8 7 9 10 8 9 11 19 23 19 18 20 18 20 23 24 24 22 20 20 21 22 21 18 17 18 20 24 27 30 30 30 32 33 32 31 27 25 23 18 17 16 10 13 20 22 24 26 27 26 26 26 27 27 25 24 23 22 22 21 20
8 10 15 19 20 19 18 18 15 13 12 10 9 11 13 13 11 10 11 10 8 9 8 7 8 7 7 9 8 8 8 8 10 11 15 24 20 18 19 18 19 22 22 22 23 20 17 19 23 23 22 20 20 20 19 20 26 31 31 30 30 32 33 32 27 25 23 18 10 9 13 19 24 27 28 29 28 26 26 26 25 25 24 22 21 21 19 18
7 11 15 17 15 14 17 18 15 12 10 9 9 10 12 12 10 8 9 9 8 8 8 7 9 10 9 9 8 7 7 8 11 10 11 20 20 17 18 20 20 23 22 20 22 22 17 16 21 23 22 18 15 16 17 16 18 25 31 31 28 30 34 34 29 25 25 19 10 13 15 16 21 26 27 28 28 27 27 25 23 24 24 22 21 20 18 17
4 10 16 17 13 11 15 16 13 11 11 11 10 11 11 11 10 9 9 9 9 8 8 8 9 9 10 11 10 9 9 9 11 11 9 18 22 20 19 21 20 21 22 20 22 24 18 15 18 21 21 18 14 13 15 18 18 18 24 29 27 26 31 33 28 23 21 16 13 17 17 16 21 26 27 29 28 28 28 25 23 24 23 21 20 19 18 16
4 8 14 17 14 12 15 15 12 11 11 12 12 10 10 10 10 10 9 10 11 10 9 9 9 8 9 11 12 12 11 13 16 13 6 13 22 23 23 22 20 20 22 22 22 24 21 15 13 17 18 17 17 14 11 14 18 17 17 25 28 26 26 26 22 19 18 18 18 19 19 20 24 27 28 29 28 28 26 22 22 23 22 21 19 18 17 15
2 5 10 16 14 12 14 14 12 12 11 12 12 10 9 10 10 10 9 10 11 11 10 9 9 9 10 11 13 13 12 14 16 15 9 9 16 21 21 19 18 20 23 24 22 21 21 15 10 13 14 13 16 17 12 12 16 18 16 16 21 24 19 14 13 15 20 23 21 19 18 21 24 27 28 29 28 25 21 18 20 22 22 20 18 17 17 15
2 3 7 15 15 11 12 11 11 12 11 11 11 10 8 9 10 10 10 10 10 12 13 11 10 11 13 16 16 14 13 16 15 13 13 12 15 18 19 18 21 25 26 24 21 19 19 15 11 12 12 10 12 15 14 12 12 14 10 1 5 14 15 15 16 14 17 20 20 18 17 19 24 27 29 29 25 22 19 17 20 22 22 21 18 18 17 15
Wind_Direction
274 274 273 272 272 271 269 265 261 259 257 256 255 254 254 253 252 251 249 248 247 245 243 242 241 239 238 237 236 233 231 231 230 230 226 220 226 231 227 225 225 225 225 223 221 219 212 210 209 203 198 194 201 197 202 218 211 215 229 233 236 234 233 241 243 234 233 215 179 191 192 196 201 202 200 194 196 200 201 207 207 204 204 184 185 208 191 186
273 273 272 272 271 271 270 268 264 260 257 255 254 254 253 252 252 251 250 248 247 246 245 243 242 240 239 237 237 234 232 232 231 230 226 221 228 230 226 224 226 226 227 224 222 218 205 205 202 195 189 192 217 209 202 217 213 212 221 228 233 230 231 241 240 230 207 170 174 172 182 191 197 200 197 193 192 196 212 213 212 211 205 188 179 194 187 183
273 272 271 271 270 270 269 269 267 263 259 256 254 253 252 251 251 251 250 249 247 246 245 244 243 241 240 237 237 237 235 234 234 233 227 224 227 229 228 227 227 227 227 222 217 207 189 202 212 198 194 202 218 214 207 215 218 215 217 228 233 232 239 248 231 210 104 103 128 192 180 186 204 210 196 196 197 196 220 231 225 218 211 194 170 180 185 181
275 273 271 271 270 269 268 268 267 265 262 258 256 252 251 250 249 249 249 249 247 246 245 245 244 242 241 239 238 237 237 238 240 238 229 224 225 228 230 230 230 229 227 223 217 199 179 200 219 211 206 213 217 212 209 212 218 217 221 227 222 234 260 259 231 230 235 134 82 134 180 188 189 189 189 196 199 202 224 236 231 228 219 193 168 178 184 184
276 274 273 272 270 270 268 267 266 266 264 261 258 254 251 249 248 248 248 248 247 246 245 244 244 243 241 240 238 237 237 242 248 242 233 226 224 226 230 231 230 228 225 222 219 202 186 200 215 217 215 217 216 212 213 215 219 220 228 229 227 251 275 264 238 233 228 196 151 107 184 202 188 180 181 193 204 208 209 203 207 224 215 186 171 180 183 188
276 275 275 273 271 270 269 267 266 265 264 262 259 256 252 248 247 246 246 246 246 246 245 243 243 242 241 240 238 236 231 228 240 240 235 229 225 225 228 229 229 226 223 220 218 204 191 202 212 216 219 221 219 216 218 219 221 227 233 234 240 257 260 255 235 221 219 209 215 233 227 204 189 197 186 189 200 206 208 194 182 191 198 185 175 179 181 189
276 275 275 274 272 271 269 268 266 265 263 261 259 257 254 250 247 245 244 244 244 244 245 243 242 241 240 240 237 237 230 221 231 241 237 232 227 223 226 228 227 225 223 219 217 207 197 204 211 213 218 222 223 222 223 223 223 230 235 237 244 246 237 242 225 226 233 223 225 235 235 203 189 206 194 188 176 196 226 204 182 183 191 188 180 179 180 186
276 275 274 274 272 271 269 268 267 265 263 262 260 258 255 253 249 245 243 242 241 242 243 242 241 240 239 239 237 237 234 226 235 246 239 233 229 223 224 226 226 224 221 219 216 210 203 208 211 212 218 221 224 226 224 226 227 230 236 238 244 239 232 235 229 242 234 212 214 223 225 204 201 211 199 196 172 184 215 194 184 190 190 187 183 180 179 182
277 276 275 274 273 271 269 268 266 265 264 262 260 259 256 254 250 247 243 240 239 239 240 240 239 238 237 237 236 235 236 227 237 248 239 229 228 224 222 224 225 223 220 217 214 208 203 211 214 211 219 223 226 231 227 230 231 232 235 235 239 240 232 232 233 237 220 208 211 215 212 203 210 211 199 195 175 182 206 199 193 206 206 192 185 183 179 186
276 275 275 274 274 273 270 268 266 265 264 262 260 259 256 254 251 247 244 240 237 237 238 238 237 236 235 234 234 232 229 214 218 240 240 229 226 225 221 222 222 221 219 215 213 209 203 208 215 215 224 230 232 236 232 232 234 235 234 233 235 239 236 231 232 230 225 220 213 213 207 200 208 200 194 190 178 185 193 210 215 214 207 194 187 183 180 199
276 275 274 274 274 274 272 269 266 264 263 262 260 258 257 254 251 248 245 240 237 236 236 236 235 234 233 232 231 226 217 213 220 236 241 234 229 228 223 222 220 219 219 216 214 211 204 207 212 217 228 233 236 242 241 235 235 238 233 235 235 234 238 233 228 226 224 221 210 209 206 201 205 196 194 187 181 183 175 201 224 214 197 187 185 182 185 212
274 274 274 273 273 273 272 270 268 265 263 262 260 258 257 254 251 248 244 242 238 235 235 235 234 232 232 231 228 221 214 213 220 235 238 233 229 229 224 220 218 216 216 215 215 212 206 206 212 219 225 229 235 242 247 240 235 237 233 239 240 232 234 231 224 220 216 214 203 202 208 205 206 200 198 188 179 179 176 195 217 207 195 183 180 183 189 211
274 274 273 272 272 272 272 271 269 266 263 261 259 257 256 254 252 248 244 241 238 236 235 234 234 232 232 233 228 220 220 220 219 230 235 229 224 226 224 221 218 215 213 210 210 214 209 205 214 222 224 229 235 236 243 246 233 231 231 237 242 231 229 224 217 213 209 211 199 200 211 203 202 205 201 189 179 178 187 202 205 197 196 186 181 186 189 204
275 273 272 271 270 271 271 271 269 267 264 261 259 257 256 253 250 248 244 240 237 236 235 234 234 233 235 236 227 217 223 226 224 226 230 227 223 225 225 223 220 217 214 206 198 210 217 211 215 224 228 231 236 237 239 246 232 226 229 233 235 233 228 217 212 208 206 211 198 200 215 203 197 206 199 186 180 177 186 200 191 186 194 194 194 192 193 206
277 274 271 269 269 270 270 270 268 267 264 261 259 257 255 252 249 247 244 240 236 234 234 235 235 236 239 238 228 218 222 229 229 227 229 227 222 222 223 221 220 217 214 204 191 198 216 213 214 223 231 230 232 239 238 239 229 221 224 227 227 233 233 213 206 204 205 209 196 198 218 210 194 199 192 179 177 177 187 196 181 177 191 194 199 196 198 210
279 276 272 269 268 269 269 270 268 266 264 261 258 255 253 251 249 246 243 239 234 232 232 234 234 236 240 238 230 224 225 231 232 228 228 227 220 216 218 221 219 214 212 204 193 191 203 209 216 224 227 224 227 234 233 232 226 217 218 224 222 224 234 217 199 201 204 202 193 198 219 217 194 194 190 178 182 186 191 197 184 181 196 193 197 203 203 211
280 277 274 271 268 269 269 270 269 266 264 260 256 253 252 250 248 244 242 237 233 232 230 231 233 235 240 237 229 227 228 231 230 224 224 223 219 212 208 219 221 213 211 206 195 192 201 205 211 218 217 218 222 222 224 226 220 213 211 223 226 218 231 220 190 193 203 199 195 203 220 224 198 188 189 182 189 192 195 206 192 180 195 201 208 215 208 209
281 279 276 273 270 269 270 270 268 266 263 260 254 251 250 249 247 243 239 234 231 229 226 227 227 231 245 243 236 236 237 235 227 223 224 220 217 207 197 215 220 210 206 204 198 197 204 203 203 211 213 216 217 213 218 220 213 210 205 216 228 220 227 222 188 185 198 198 202 210 222 231 216 190 185 182 191 194 202 213 195 179 199 208 209 215 210 208
280 280 278 275 272 270 270 270 268 265 262 257 251 248 247 246 246 245 242 237 232 227 224 228 228 226 226 265 254 242 238 241 230 220 220 218 215 201 192 210 209 199 199 200 203 202 202 204 204 211 211 212 214 211 216 220 213 213 208 212 225 221 224 228 200 183 191 195 208 219 220 230 227 197 182 184 196 198 205 210 198 198 214 209 202 209 206 203
275 276 278 277 274 271 271 270 267 264 260 253 248 245 242 245 261 265 254 244 239 235 230 232 241 232 208 121 307 238 209 217 220 215 209 212 214 198 192 203 195 194 199 196 204 204 199 206 209 211 212 210 213 214 217 226 227 223 217 213 223 225 223 228 204 181 185 195 210 221 218 225 223 193 182 190 195 199 210 215 212 217 224 217 213 213 207 201
267 272 278 278 277 274 272 270 266 263 259 250 243 240 227 213 273 275 261 251 243 240 231 222 233 233 206 163 172 225 204 191 199 204 199 205 209 196 193 197 192 197 200 195 200 203 203 211 213 211 212 211 213 217 219 228 235 235 229 216 221 228 224 224 197 176 181 197 208 218 222 227 213 183 182 193 192 200 217 223 220 216 217 220 220 215 214 205
263 270 275 277 277 275 273 269 264 259 256 247 238 235 216 194 203 225 236 251 242 235 229 214 214 223 199 166 165 204 204 189 195 199 192 197 201 194 193 194 194 198 197 196 198 200 207 214 216 210 211 213 215 218 219 228 236 239 240 227 220 225 223 220 198 177 179 194 205 212 223 230 205 182 188 198 199 206 222 230 223 212 212 220 221 212 210 195
260 266 270 274 275 274 273 267 263 256 252 245 233 226 207 201 215 220 219 242 246 234 229 214 209 215 196 176 182 207 199 188 198 203 193 194 196 192 192 193 196 198 196 199 200 201 208 214 213 208 210 213 215 218 218 226 233 235 241 235 223 219 212 213 206 188 180 188 202 205 219 230 202 183 190 196 201 205 216 223 209 213 224 225 222 215 207 194
257 261 263 270 272 272 271 264 261 253 247 241 229 219 205 207 231 231 222 246 253 238 233 222 215 218 202 184 195 212 203 194 197 203 197 195 194 191 193 195 196 199 201 202 204 207 212 212 208 207 210 211 214 217 215 222 228 229 233 233 227 215 209 216 207 188 175 186 207 202 212 230 202 177 182 186 194 199 210 213 193 211 225 216 215 215 207 207
253 255 256 265 269 269 269 264 257 244 237 226 219 217 212 218 238 232 225 255 263 245 232 225 221 222 209 192 200 209 207 202 195 199 202 197 193 191 193 198 198 202 205 203 207 214 215 211 206 206 209 209 213 216 214 218 221 225 227 226 231 215 212 223 198 180 180 191 209 204 206 224 199 182 187 188 192 192 196 195 179 196 207 197 206 211 201 206
249 249 252 260 263 267 267 257 243 229 218 211 213 209 214 224 231 229 226 254 269 252 227 222 221 221 210 197 198 201 210 210 191 188 206 203 193 191 193 198 201 205 206 203 208 216 215 210 205 206 208 208 213 216 214 214 217 224 223 224 235 227 220 217 176 175 193 196 208 212 211 213 192 185 190 189 189 186 186 186 179 190 200 200 210 212 204 206
245 245 248 253 257 263 259 242 226 211 197 200 213 203 211 216 206 204 213 247 269 244 212 210 214 218 212 201 195 192 205 210 188 178 203 209 196 192 198 198 201 205 203 203 209 214 212 207 205 205 208 208 211 215 212 208 215 222 218 222 233 231 229 207 166 172 200 199 208 218 220 221 197 186 190 192 190 191 199 202 201 209 217 213 210 214 216 209
242 241 244 248 253 257 249 230 210 182 165 178 199 203 207 206 185 172 190 234 274 203 192 192 198 213 210 201 197 194 195 201 191 181 191 207 196 191 202 202 201 205 200 203 210 209 207 208 207 202 205 210 211 213 210 206 214 218 211 216 224 228 238 221 183 179 195 200 211 219 219 228 209 192 196 201 198 200 205 202 201 210 219 218 211 216 222 209
240 239 240 244 249 251 236 219 201 181 176 182 197 207 197 180 169 169 206 236 164 146 171 176 179 192 188 189 196 197 193 196 198 186 180 201 195 188 203 204 201 207 204 208 214 208 203 206 209 204 205 212 211 210 211 208 211 215 215 214 218 226 237 242 222 198 191 202 217 217 212 222 223 194 193 198 198 201 199 190 195 203 208 211 208 208 209 202
233 235 238 241 244 242 226 210 194 193 191 185 199 205 178 160 168 181 214 218 177 149 163 176 178 179 177 181 190 195 197 197 197 187 180 195 192 186 201 206 203 210 209 213 218 215 208 204 213 215 209 212 212 209 211 210 205 212 224 217 211 222 231 253 246 211 198 210 219 220 211 214 233 202 195 196 196 197 188 185 200 204 199 201 201 197 194 195
226 231 234 237 238 229 215 197 185 195 198 195 195 180 168 165 175 197 199 194 179 153 165 188 187 181 180 181 185 192 197 195 193 187 183 188 190 188 197 205 209 214 210 212 217 217 214 205 211 218 211 210 212 208 207 209 204 210 225 217 201 209 222 248 245 207 198 217 216 223 213 205 221 229 211 198 195 197 188 188 199 198 194 196 193 189 187 192
220 226 228 230 230 221 206 191 185 195 203 206 182 163 169 179 194 221 211 194 180 161 173 194 187 184 184 182 185 190 194 195 194 188 185 187 190 192 197 199 204 208 204 207 210 211 214 209 208 213 210 204 204 204 202 205 206 210 220 219 205 197 206 235 239 199 201 221 213 217 215 204 212 235 226 196 194 196 187 187 195 196 197 196 188 187 188 192
213 218 222 223 221 216 204 193 189 196 205 204 174 165 176 193 211 218 215 210 177 173 186 195 186 185 183 183 190 191 190 195 194 187 187 189 191 195 200 200 201 204 202 202 203 205 210 212 208 206 207 202 201 205 201 199 205 209 214 217 212 199 191 215 224 200 207 219 213 212 216 208 200 208 201 192 196 192 184 185 194 201 203 203 203 205 203 206
210 212 215 217 216 212 201 194 191 192 197 187 171 170 186 213 217 212 220 242 207 191 201 190 181 182 183 186 192 189 188 194 193 184 185 190 193 195 200 202 203 207 207 200 201 203 204 210 209 203 203 204 205 210 205 197 203 208 210 216 213 207 203 205 216 216 208 218 223 220 220 202 166 145 154 181 197 192 186 187 194 204 208 208 213 216 217 220
207 205 208 212 212 207 199 196 195 192 186 175 171 178 196 213 219 212 224 242 220 215 211 180 174 179 183 190 193 187 187 192 189 184 186 192 196 195 198 202 202 204 207 201 201 204 206 212 210 203 204 206 208 213 210 199 200 206 209 213 212 209 208 203 215 222 213 219 227 221 199 117 137 142 148 161 177 183 186 190 197 208 214 215 220 221 221 222
200 194 204 211 207 203 201 198 195 194 185 172 175 196 205 208 215 214 218 225 224 227 208 172 173 180 183 188 191 187 190 195 188 184 189 195 200 198 198 201 201 201 205 201 197 199 204 211 207 201 203 206 208 212 211 205 199 201 209 213 210 208 210 203 202 215 220 230 215 186 113 117 137 144 150 155 164 175 185 194 201 209 215 219 223 220 217 216
188 189 204 209 203 200 200 196 193 194 188 180 189 209 212 211 218 238 228 212 206 211 212 193 185 184 182 187 189 184 191 203 195 188 191 196 202 201 197 200 201 201 204 201 195 198 206 213 205 200 203 205 207 210 212 215 206 198 207 214 207 204 216 216 200 205 212 232 221 180 139 144 150 150 166 166 166 174 184 193 200 207 215 220 220 213 209 209
173 191 202 200 199 197 193 192 190 191 190 191 203 220 222 221 228 242 249 241 207 194 213 233 199 187 183 188 188 181 190 202 194 189 195 197 203 202 196 199 200 200 204 203 200 203 211 216 202 198 203 203 203 208 215 219 214 207 208 210 206 204 214 217 210 205 200 216 231 178 148 162 171 165 171 180 185 187 190 198 203 209 216 220 216 207 203 205
168 186 193 190 191 188 189 190 189 191 194 201 215 223 215 215 218 222 243 239 220 201 214 234 225 210 198 192 187 180 188 196 188 190 197 195 200 201 196 198 197 198 202 202 203 204 212 221 204 193 200 199 195 205 216 214 208 211 209 203 209 216 216 216 217 214 207 214 223 178 154 177 191 184 181 185 195 200 201 205 207 211 217 217 209 201 199 201
163 169 179 183 181 179 183 190 193 195 200 207 216 217 212 226 235 240 278 257 226 216 221 234 243 238 224 206 192 181 186 194 189 192 200 195 193 192 193 196 195 195 198 200 203 202 207 225 225 192 193 196 194 200 210 205 197 203 207 201 205 214 219 220 218 214 213 217 210 194 176 166 186 208 203 193 196 203 208 211 210 211 215 211 200 195 197 199
158 164 177 183 182 176 175 188 199 202 207 210 214 216 228 259 254 242 270 252 231 225 225 254 240 224 236 245 217 190 188 193 191 194 199 198 193 189 191 195 193 192 196 200 201 199 199 214 229 196 189 196 201 200 205 205 198 200 206 206 205 209 215 220 217 214 215 219 218 216 204 115 147 196 200 195 198 201 206 214 213 209 207 201 195 195 196 195
161 165 174 178 179 174 176 192 203 205 210 213 216 224 241 259 251 238 276 240 226 216 232 278 235 206 261 275 242 219 195 193 195 196 196 197 199 197 192 193 192 189 193 199 200 198 195 200 215 205 195 200 204 202 205 209 207 205 207 211 211 207 211 220 222 211 212 222 228 222 212 98 143 180 184 185 192 198 204 212 213 206 201 196 194 194 192 191
166 168 171 173 173 174 182 196 204 208 216 219 223 233 244 256 254 263 281 243 211 197 216 279 240 221 289 261 225 247 221 198 198 198 196 197 199 199 192 191 192 190 191 197 196 194 193 195 204 201 198 205 207 205 207 209 213 214 208 210 215 210 209 218 227 220 214 224 228 221 198 121 152 179 182 176 177 192 202 208 211 206 198 193 193 190 188 190
175 178 180 173 171 179 187 188 194 211 221 225 233 236 238 250 252 254 265 240 212 208 212 234 245 249 269 245 224 252 265 226 207 198 197 198 195 194 194 192 192 191 192 196 195 190 189 193 199 193 191 205 208 206 205 204 213 219 211 208 216 217 211 212 220 226 225 227 228 225 105 133 164 177 179 174 179 195 202 205 210 206 196 191 189 186 188 194
173 169 173 173 175 185 187 182 192 217 218 219 233 236 234 248 253 243 248 247 226 222 221 227 250 256 239 239 249 256 269 279 244 211 197 194 192 194 198 195 192 192 193 196 198 194 189 191 199 198 190 197 208 210 203 200 208 219 215 210 214 219 219 214 215 221 222 222 227 214 127 143 167 172 172 180 195 202 202 205 209 205 196 190 186 187 193 199
158 148 161 172 181 188 189 188 198 211 210 215 232 239 237 248 259 246 240 247 235 228 237 235 240 249 235 233 249 266 263 255 264 243 198 185 186 196 204 200 190 192 195 196 196 192 188 194 204 206 202 201 207 209 204 201 206 213 216 215 212 216 223 222 217 221 225 221 219 197 154 155 164 172 177 187 199 201 199 203 205 203 197 191 188 192 198 201
150 143 155 172 182 187 191 194 201 208 213 219 230 239 239 243 258 249 225 228 236 234 238 235 230 236 234 229 235 261 265 242 253 253 198 181 185 195 203 202 195 198 199 196 195 191 191 201 209 214 216 213 211 211 209 209 210 211 216 217 212 212 223 231 227 221 224 224 202 175 182 173 166 176 187 192 199 204 206 210 208 202 197 194 194 198 201 204
148 150 158 170 179 190 196 197 204 218 227 231 239 247 245 241 248 234 203 212 235 234 233 237 239 237 230 228 231 246 262 251 244 241 194 181 186 191 196 198 201 205 201 194 195 196 200 212 213 215 221 223 227 229 228 229 224 216 215 216 214 211 218 232 236 224 221 227 202 173 193 193 175 179 191 196 200 207 212 217 215 205 198 195 196 201 204 206
138 155 165 171 174 193 203 203 212 225 230 241 252 252 245 239 237 222 209 226 240 236 240 248 248 240 230 230 233 239 246 235 231 237 202 177 182 190 196 196 199 203 198 195 198 199 203 215 215 216 221 226 233 235 234 237 242 235 218 216 220 217 215 224 234 231 220 213 188 168 167 172 174 181 193 199 202 207 211 215 213 206 201 196 196 201 204 205
91 147 173 181 181 192 200 203 218 230 234 241 245 244 239 239 240 232 227 235 239 239 245 252 251 242 237 237 236 240 239 224 226 241 223 173 181 190 194 194 197 198 195 196 200 200 203 207 206 208 217 227 228 229 245 241 240 252 238 219 219 224 220 217 222 223 196 167 167 173 158 152 169 181 190 197 203 208 209 207 202 200 202 199 198 202 202 203
88 149 177 186 186 188 188 195 214 226 233 235 233 235 238 238 238 236 235 241 246 246 242 246 252 246 243 240 236 240 239 225 229 244 245 205 190 187 187 191 195 193 195 200 199 197 202 207 199 195 208 228 224 221 239 237 230 248 256 233 222 224 215 184 176 201 190 163 161 177 171 163 175 185 189 194 202 206 204 201 197 197 202 202 200 204 204 203
198 144 163 182 189 185 178 190 212 217 224 231 228 228 236 237 234 238 246 248 246 242 237 243 260 259 249 237 230 234 232 219 218 231 236 217 194 192 200 206 201 191 190 199 200 193 200 206 198 195 205 218 207 203 218 228 230 239 244 241 193 199 185 151 138 156 181 171 159 165 173 175 182 193 199 198 200 203 200 203 205 203 204 204 203 208 207 203
Height
3075 3074 3074 3074 3075 3075 3075 3076 3076 3077 3077 3078 3079 3079 3080 3081 3082 3084 3084 3085 3087 3087 3088 3090 3091 3092 3093 3094 3095 3096 3097 3098 3099 3099 3100 3102 3102 3103 3106 3107 3108 3110 3111 3113 3114 3115 3117 3118 3119 3120 3121 3123 3125 3126 3129 3131 3132 3134 3134 3134 3134 3133 3133 3132 3133 3133 3132 3132 3131 3131 3133 3135 3137 3138 3138 3141 3142 3139 3137 3140 3140 3141 3143 3145 3147 3149 3150 3150
3072 3072 3071 3072 3072 3072 3072 3073 3073 3074 3074 3075 3076 3076 3077 3079 3080 3081 3082 3083 3084 3085 3086 3087 3088 3090 3091 3092 3093 3094 3095 3096 3096 3097 3099 3101 3101 3103 3105 3106 3107 3109 3110 3112 3114 3115 3116 3118 3119 3120 3121 3123 3125 3126 3129 3130 3130 3132 3133 3133 3132 3131 3131 3131 3131 3130 3129 3129 3130 3131 3133 3135 3136 3137 3138 3139 3141 3139 3137 3140 3141 3142 3144 3146 3147 3149 3150 3151
3069 3069 3069 3069 3069 3069 3070 3070 3070 3071 3071 3072 3072 3073 3074 3076 3077 3078 3079 3081 3082 3083 3084 3085 3086 3087 3089 3090 3091 3092 3093 3094 3094 3095 3098 3100 3101 3102 3103 3105 3106 3108 3110 3111 3112 3114 3116 3118 3119 3120 3122 3124 3126 3127 3128 3129 3129 3130 3131 3131 3130 3129 3130 3131 3130 3128 3128 3128 3130 3132 3133 3135 3136 3136 3138 3138 3141 3140 3136 3138 3141 3141 3143 3145 3146 3148 3150 3151
3067 3066 3066 3066 3066 3066 3067 3067 3067 3068 3068 3069 3070 3070 3071 3072 3074 3075 3077 3078 3080 3081 3082 3083 3084 3085 3087 3088 3089 3090 3091 3092 3092 3093 3095 3098 3099 3101 3102 3104 3105 3107 3109 3110 3111 3113 3115 3118 3120 3121 3122 3124 3125 3127 3128 3128 3128 3129 3129 3128 3128 3129 3130 3130 3129 3129 3129 3129 3131 3132 3133 3134 3135 3136 3137 3138 3140 3140 3137 3136 3138 3139 3142 3145 3145 3147 3149 3150
3064 3064 3063 3063 3063 3063 3064 3064 3064 3065 3065 3066 3067 3067 3068 3069 3070 3072 3074 3075 3077 3078 3079 3081 3082 3083 3084 3086 3087 3088 3090 3092 3090 3089 3093 3096 3097 3099 3100 3102 3104 3106 3107 3109 3110 3111 3113 3117 3121 3122 3122 3123 3125 3126 3127 3127 3127 3127 3127 3126 3126 3128 3129 3128 3129 3129 3129 3129 3131 3133 3134 3134 3135 3135 3136 3140 3140 3139 3137 3134 3135 3139 3142 3144 3144 3146 3148 3149
3061 3061 3060 3060 3060 3061 3061 3061 3061 3062 3062 3062 3063 3064 3065 3066 3067 3069 3070 3073 3075 3076 3076 3078 3079 3081 3082 3083 3085 3086 3088 3090 3086 3086 3091 3093 3095 3097 3098 3100 3102 3104 3106 3107 3109 3110 3112 3116 3119 3121 3121 3122 3124 3125 3126 3126 3127 3126 3126 3125 3125 3128 3128 3128 3129 3128 3127 3129 3131 3133 3133 3133 3135 3136 3137 3140 3138 3135 3135 3134 3136 3140 3141 3143 3144 3146 3147 3149
3058 3058 3058 3058 3058 3058 3058 3058 3058 3058 3059 3059 3060 3060 3062 3063 3064 3066 3067 3070 3072 3073 3074 3075 3077 3078 3080 3081 3083 3084 3085 3085 3084 3085 3089 3091 3093 3095 3096 3098 3100 3102 3104 3105 3107 3109 3111 3114 3117 3119 3121 3121 3122 3124 3125 3125 3126 3125 3125 3125 3126 3127 3127 3127 3128 3126 3126 3128 3132 3132 3131 3133 3135 3136 3138 3139 3137 3134 3133 3135 3137 3140 3141 3143 3144 3145 3146 3148
3055 3055 3055 3055 3055 3055 3055 3055 3055 3055 3055 3056 3056 3057 3059 3060 3061 3063 3065 3067 3069 3070 3071 3073 3074 3076 3078 3079 3080 3081 3081 3084 3085 3084 3087 3089 3091 3093 3094 3096 3098 3100 3102 3104 3106 3108 3111 3113 3116 3118 3120 3121 3122 3123 3124 3124 3125 3124 3124 3125 3125 3126 3126 3126 3127 3126 3126 3128 3130 3131 3131 3134 3135 3136 3137 3138 3138 3134 3131 3136 3138 3139 3141 3143 3144 3145 3146 3147
3052 3052 3052 3052 3052 3052 3052 3052 3052 3052 3052 3053 3054 3054 3055 3057 3058 3060 3061 3064 3066 3067 3068 3070 3071 3073 3075 3076 3078 3078 3080 3085 3085 3081 3083 3087 3089 3091 3092 3094 3096 3098 3101 3103 3105 3107 3109 3112 3114 3117 3118 3120 3121 3122 3123 3123 3122 3123 3123 3124 3124 3125 3125 3126 3126 3126 3127 3128 3129 3130 3131 3134 3134 3135 3136 3136 3137 3134 3131 3135 3138 3139 3140 3142 3144 3144 3145 3147
3049 3049 3049 3049 3049 3049 3049 3049 3049 3049 3049 3050 3051 3051 3052 3053 3055 3057 3058 3061 3062 3064 3065 3067 3069 3070 3072 3073 3074 3076 3079 3083 3082 3078 3080 3085 3087 3089 3090 3092 3094 3097 3099 3101 3103 3105 3107 3111 3113 3116 3118 3119 3120 3121 3121 3122 3121 3121 3122 3122 3123 3123 3124 3125 3125 3126 3127 3127 3129 3130 3131 3133 3133 3133 3134 3135 3135 3134 3133 3135 3137 3139 3140 3141 3143 3143 3145 3146
3046 3046 3046 3046 3046 3046 3046 3046 3046 3046 3046 3047 3048 3048 3049 3050 3051 3053 3055 3058 3059 3061 3062 3063 3066 3067 3068 3070 3070 3074 3077 3080 3080 3078 3079 3084 3086 3087 3089 3090 3092 3095 3097 3099 3102 3104 3106 3109 3113 3115 3116 3117 3118 3119 3119 3120 3120 3120 3120 3121 3122 3122 3123 3123 3124 3125 3126 3127 3128 3129 3130 3132 3132 3131 3132 3134 3134 3135 3135 3135 3137 3139 3140 3141 3142 3143 3144 3145
3043 3043 3043 3043 3043 3043 3043 3043 3043 3043 3043 3044 3045 3046 3047 3047 3048 3050 3052 3054 3057 3059 3059 3061 3062 3064 3065 3064 3066 3072 3075 3076 3077 3076 3077 3082 3084 3085 3087 3089 3090 3093 3095 3098 3100 3102 3105 3108 3111 3114 3115 3116 3117 3117 3117 3117 3118 3119 3120 3120 3120 3121 3121 3121 3122 3123 3125 3125 3126 3128 3129 3130 3130 3130 3131 3132 3133 3135 3134 3134 3136 3138 3139 3140 3141 3142 3143 3145
3040 3040 3040 3040 3040 3040 3040 3040 3040 3040 3041 3041 3042 3043 3043 3044 3046 3047 3049 3051 3054 3056 3057 3058 3059 3061 3060 3058 3064 3072 3072 3072 3073 3074 3076 3080 3082 3083 3085 3087 3089 3091 3093 3096 3099 3101 3104 3106 3109 3111 3113 3115 3115 3116 3116 3115 3116 3117 3118 3119 3119 3119 3118 3120 3121 3122 3124 3124 3125 3127 3126 3127 3129 3128 3130 3130 3131 3135 3133 3131 3135 3137 3137 3139 3140 3142 3143 3144
3036 3037 3037 3037 3037 3037 3037 3037 3037 3037 3038 3038 3039 3040 3041 3042 3043 3044 3046 3049 3051 3053 3054 3055 3056 3057 3056 3055 3064 3069 3068 3068 3069 3071 3074 3077 3080 3081 3083 3085 3087 3089 3091 3094 3097 3101 3103 3105 3108 3109 3111 3112 3113 3114 3114 3115 3115 3116 3117 3117 3117 3116 3115 3117 3119 3121 3122 3123 3124 3126 3124 3125 3127 3127 3129 3130 3131 3135 3133 3129 3133 3136 3137 3138 3139 3141 3142 3143
3033 3034 3034 3034 3034 3034 3034 3034 3035 3035 3035 3036 3037 3037 3038 3038 3040 3042 3044 3046 3048 3049 3051 3052 3053 3054 3052 3054 3062 3065 3064 3064 3065 3069 3073 3075 3078 3080 3082 3084 3085 3088 3090 3092 3095 3099 3102 3104 3106 3107 3108 3109 3110 3112 3113 3113 3113 3114 3114 3114 3114 3114 3113 3114 3116 3118 3120 3121 3123 3124 3123 3123 3125 3126 3128 3129 3130 3134 3133 3129 3131 3134 3136 3137 3138 3140 3141 3141
3031 3031 3031 3031 3031 3031 3031 3032 3032 3032 3033 3033 3034 3034 3035 3036 3037 3039 3041 3044 3045 3046 3047 3049 3050 3051 3050 3053 3059 3060 3060 3060 3064 3070 3071 3073 3076 3078 3081 3082 3084 3086 3088 3091 3093 3096 3100 3103 3105 3105 3106 3107 3108 3110 3111 3111 3111 3111 3112 3111 3112 3112 3111 3111 3112 3115 3118 3119 3122 3122 3122 3121 3123 3125 3126 3128 3130 3133 3134 3130 3131 3133 3134 3136 3137 3139 3140 3140
3028 3028 3028 3028 3028 3028 3029 3029 3029 3030 3030 3031 3031 3032 3032 3033 3035 3037 3039 3041 3042 3043 3045 3046 3047 3048 3048 3051 3054 3055 3057 3059 3064 3068 3068 3071 3074 3076 3080 3081 3082 3085 3087 3090 3092 3095 3098 3100 3102 3102 3104 3105 3107 3109 3108 3107 3107 3108 3109 3109 3110 3110 3110 3108 3109 3113 3116 3118 3120 3120 3120 3119 3122 3124 3124 3127 3129 3132 3133 3128 3130 3133 3133 3135 3136 3138 3140 3139
3025 3025 3025 3025 3025 3025 3026 3026 3027 3027 3028 3029 3029 3029 3030 3032 3033 3035 3036 3038 3039 3040 3042 3042 3044 3046 3048 3050 3051 3054 3057 3059 3062 3065 3066 3068 3072 3075 3078 3080 3081 3084 3087 3089 3091 3093 3095 3096 3099 3100 3101 3102 3103 3105 3104 3104 3104 3105 3106 3108 3108 3107 3107 3106 3106 3110 3113 3117 3118 3118 3118 3117 3120 3123 3124 3127 3128 3131 3131 3127 3129 3132 3133 3135 3135 3137 3139 3138
3022 3022 3022 3022 3022 3023 3023 3024 3024 3025 3026 3026 3026 3027 3028 3030 3031 3033 3034 3035 3035 3036 3038 3040 3041 3045 3048 3049 3051 3054 3056 3058 3059 3061 3064 3066 3069 3073 3076 3078 3080 3083 3085 3087 3088 3090 3092 3094 3096 3096 3097 3098 3099 3101 3102 3102 3103 3104 3104 3106 3106 3105 3105 3104 3105 3108 3111 3115 3116 3116 3117 3116 3117 3121 3123 3126 3128 3130 3128 3124 3127 3130 3132 3134 3134 3135 3137 3138
3020 3020 3020 3020 3020 3020 3021 3021 3022 3022 3023 3023 3024 3025 3027 3029 3032 3032 3032 3032 3032 3034 3037 3039 3039 3042 3046 3048 3051 3053 3054 3056 3057 3059 3062 3064 3067 3071 3074 3076 3079 3082 3083 3085 3086 3088 3091 3092 3091 3092 3094 3096 3098 3100 3101 3101 3101 3102 3103 3103 3104 3103 3102 3102 3103 3106 3110 3114 3113 3114 3116 3115 3115 3119 3122 3125 3128 3129 3124 3122 3126 3129 3131 3131 3131 3133 3135 3138
3017 3017 3017 3017 3018 3018 3018 3019 3019 3020 3020 3021 3021 3023 3026 3028 3031 3031 3029 3028 3030 3032 3034 3037 3037 3038 3043 3046 3051 3054 3053 3054 3056 3057 3061 3063 3065 3069 3071 3074 3077 3078 3080 3084 3086 3087 3088 3087 3087 3090 3093 3096 3098 3099 3101 3100 3100 3101 3101 3101 3102 3101 3100 3100 3101 3103 3107 3111 3112 3113 3114 3113 3114 3118 3121 3124 3127 3126 3122 3122 3126 3128 3129 3128 3130 3133 3134 3138
3014 3015 3015 3015 3016 3016 3016 3016 3017 3017 3017 3018 3019 3021 3024 3025 3026 3027 3027 3026 3027 3029 3030 3033 3034 3035 3040 3043 3046 3050 3050 3052 3054 3056 3059 3061 3062 3066 3069 3071 3074 3076 3079 3082 3084 3084 3084 3083 3085 3090 3093 3095 3097 3098 3099 3099 3099 3099 3099 3099 3099 3099 3099 3100 3100 3101 3105 3109 3111 3112 3112 3112 3113 3116 3119 3122 3126 3126 3122 3122 3125 3127 3127 3127 3130 3133 3133 3137
3010 3012 3013 3013 3013 3014 3014 3014 3014 3015 3015 3017 3017 3020 3022 3022 3023 3025 3025 3025 3025 3025 3026 3028 3030 3031 3036 3039 3041 3044 3046 3049 3052 3053 3056 3058 3060 3064 3067 3069 3072 3075 3077 3078 3080 3080 3080 3081 3085 3089 3091 3093 3095 3096 3098 3098 3098 3098 3097 3097 3096 3097 3098 3098 3099 3101 3103 3107 3110 3111 3111 3111 3112 3114 3117 3120 3124 3126 3123 3123 3125 3125 3126 3127 3130 3131 3132 3136
3007 3009 3010 3011 3011 3011 3012 3012 3012 3013 3014 3015 3017 3019 3020 3020 3023 3024 3024 3024 3022 3021 3023 3025 3027 3029 3032 3036 3039 3041 3043 3046 3050 3052 3053 3055 3058 3062 3065 3068 3070 3073 3074 3075 3077 3078 3078 3081 3084 3087 3089 3091 3093 3094 3095 3096 3096 3096 3096 3096 3095 3096 3097 3096 3097 3100 3104 3108 3109 3111 3111 3110 3110 3113 3116 3119 3122 3125 3124 3125 3126 3124 3124 3127 3129 3130 3132 3134
3004 3006 3007 3008 3009 3009 3009 3010 3011 3012 3013 3015 3016 3017 3018 3019 3022 3022 3023 3023 3019 3018 3021 3022 3024 3025 3029 3034 3036 3039 3042 3043 3046 3051 3052 3052 3057 3060 3063 3067 3068 3070 3071 3074 3076 3077 3078 3080 3082 3085 3087 3089 3090 3091 3092 3094 3094 3095 3094 3094 3094 3094 3095 3095 3096 3099 3103 3107 3108 3109 3110 3108 3109 3112 3114 3117 3120 3123 3124 3125 3126 3123 3121 3124 3127 3130 3133 3133
3001 3003 3005 3006 3007 3007 3008 3008 3010 3011 3012 3014 3015 3016 3018 3019 3021 3021 3022 3023 3017 3015 3017 3018 3019 3021 3024 3029 3032 3038 3042 3040 3042 3049 3050 3050 3055 3059 3062 3064 3065 3067 3070 3073 3075 3075 3076 3079 3080 3082 3084 3086 3088 3088 3090 3092 3093 3092 3092 3093 3093 3094 3094 3094 3095 3099 3102 3104 3106 3107 3107 3106 3108 3110 3113 3116 3118 3120 3121 3122 3123 3122 3121 3123 3126 3129 3131 3132
2998 3000 3002 3004 3004 3005 3006 3007 3008 3010 3012 3014 3015 3016 3017 3017 3020 3020 3022 3023 3015 3009 3012 3014 3016 3018 3020 3025 3029 3034 3036 3036 3040 3045 3047 3049 3053 3058 3060 3061 3063 3065 3068 3071 3071 3071 3073 3076 3077 3080 3082 3084 3085 3085 3087 3090 3091 3090 3092 3093 3093 3093 3094 3094 3095 3098 3101 3103 3105 3106 3105 3103 3104 3108 3112 3114 3116 3118 3120 3121 3122 3122 3122 3123 3125 3128 3129 3130
2995 2997 2999 3001 3002 3003 3004 3006 3007 3008 3011 3013 3014 3015 3015 3016 3019 3020 3022 3022 3010 3003 3007 3011 3014 3016 3019 3024 3027 3029 3032 3036 3038 3041 3045 3047 3050 3055 3056 3058 3061 3063 3066 3067 3066 3067 3070 3073 3074 3077 3079 3080 3081 3083 3086 3088 3089 3089 3091 3093 3093 3093 3093 3093 3095 3096 3099 3102 3102 3103 3104 3102 3101 3105 3109 3112 3114 3116 3118 3121 3121 3119 3120 3122 3124 3127 3128 3128
2993 2995 2997 2999 3000 3001 3003 3004 3006 3007 3008 3010 3011 3013 3013 3016 3018 3020 3022 3018 3006 3003 3006 3009 3012 3015 3018 3022 3024 3028 3032 3035 3037 3039 3043 3046 3048 3052 3054 3056 3060 3062 3064 3065 3065 3066 3068 3070 3073 3075 3076 3077 3079 3082 3084 3086 3087 3089 3090 3092 3093 3093 3092 3092 3093 3094 3097 3099 3099 3100 3102 3101 3099 3101 3105 3108 3110 3113 3116 3119 3117 3114 3117 3120 3124 3127 3126 3126
2990 2992 2995 2996 2998 3000 3001 3002 3005 3006 3006 3008 3010 3011 3013 3015 3016 3019 3020 3012 3003 3004 3007 3008 3011 3014 3016 3020 3022 3026 3030 3033 3037 3039 3042 3045 3046 3050 3053 3056 3059 3061 3063 3063 3064 3065 3066 3068 3070 3072 3074 3077 3079 3081 3083 3084 3087 3089 3089 3090 3092 3092 3092 3091 3090 3091 3094 3095 3096 3097 3099 3101 3099 3098 3101 3104 3107 3111 3114 3115 3112 3112 3115 3118 3121 3124 3126 3126
2987 2990 2992 2994 2996 2997 2999 3001 3003 3004 3006 3007 3009 3011 3012 3014 3015 3015 3012 3005 3001 3004 3006 3007 3011 3013 3014 3017 3020 3023 3027 3031 3035 3037 3039 3042 3045 3047 3050 3053 3055 3057 3059 3060 3061 3063 3064 3065 3067 3069 3073 3076 3077 3079 3081 3083 3086 3087 3087 3087 3089 3091 3092 3090 3087 3088 3090 3091 3094 3096 3097 3100 3100 3097 3098 3102 3105 3109 3112 3111 3109 3111 3115 3117 3119 3122 3125 3127
2985 2988 2990 2992 2994 2996 2998 2999 3001 3003 3005 3006 3008 3010 3011 3013 3014 3010 3004 3001 3002 3004 3005 3007 3009 3011 3014 3017 3019 3021 3024 3028 3032 3033 3036 3039 3042 3043 3045 3047 3049 3051 3053 3055 3058 3060 3062 3063 3065 3067 3070 3073 3075 3076 3078 3081 3083 3084 3084 3085 3086 3087 3090 3089 3084 3083 3087 3089 3092 3094 3094 3096 3098 3098 3099 3101 3104 3106 3107 3107 3108 3111 3114 3116 3117 3120 3123 3125
2983 2986 2988 2990 2992 2994 2996 2997 2999 3001 3003 3005 3007 3009 3011 3012 3009 3004 3001 3001 3003 3003 3004 3006 3008 3011 3013 3016 3018 3020 3023 3026 3028 3031 3034 3037 3040 3042 3044 3046 3048 3048 3049 3052 3055 3057 3059 3061 3063 3065 3066 3069 3072 3073 3074 3077 3079 3080 3081 3082 3081 3081 3086 3089 3084 3082 3086 3089 3089 3091 3092 3092 3095 3098 3097 3098 3100 3101 3102 3105 3109 3112 3113 3114 3115 3117 3120 3121
2981 2983 2986 2988 2990 2992 2994 2996 2998 2999 3002 3004 3006 3008 3010 3008 3003 3001 3001 3002 3003 3003 3003 3005 3007 3010 3013 3014 3016 3018 3021 3024 3026 3029 3032 3035 3037 3039 3041 3043 3046 3047 3048 3051 3053 3054 3056 3057 3058 3061 3064 3067 3069 3070 3072 3075 3077 3078 3079 3080 3079 3078 3082 3086 3085 3083 3086 3088 3088 3090 3090 3090 3093 3096 3095 3095 3097 3099 3102 3105 3108 3110 3111 3112 3113 3116 3118 3119
2979 2981 2984 2986 2988 2990 2992 2994 2996 2998 3000 3002 3005 3007 3006 3002 3000 3002 3002 3002 3003 3002 3002 3004 3007 3009 3012 3013 3015 3017 3019 3021 3024 3027 3030 3032 3033 3035 3037 3040 3042 3046 3047 3048 3050 3051 3053 3054 3055 3059 3063 3066 3068 3069 3071 3073 3075 3076 3078 3077 3076 3077 3080 3083 3085 3084 3087 3089 3088 3088 3089 3089 3091 3094 3095 3094 3096 3098 3101 3103 3106 3108 3110 3111 3113 3114 3116 3118
2977 2980 2982 2984 2986 2988 2991 2993 2995 2997 2999 3001 3003 3002 2999 2998 3000 3002 3003 3002 3003 3003 3002 3004 3006 3007 3010 3011 3013 3016 3018 3019 3022 3025 3027 3029 3031 3032 3035 3037 3040 3043 3044 3045 3047 3049 3051 3053 3055 3058 3061 3064 3066 3067 3069 3070 3071 3074 3075 3073 3074 3079 3081 3082 3084 3086 3087 3089 3086 3085 3088 3091 3092 3095 3097 3094 3093 3096 3099 3102 3105 3107 3108 3110 3111 3113 3114 3116
2977 2979 2981 2983 2985 2987 2989 2992 2994 2997 2998 3000 2999 2997 2997 2999 3000 3001 3003 3004 3003 3003 3003 3004 3004 3005 3007 3009 3010 3013 3016 3017 3019 3022 3024 3027 3028 3029 3033 3036 3038 3041 3043 3045 3046 3048 3050 3051 3052 3055 3058 3061 3064 3067 3067 3068 3069 3071 3071 3072 3075 3080 3080 3079 3082 3084 3086 3087 3084 3082 3086 3089 3091 3094 3097 3096 3094 3096 3098 3100 3103 3105 3107 3109 3110 3111 3113 3115
2977 2979 2981 2983 2984 2986 2989 2992 2994 2996 2998 2998 2996 2996 2998 2999 2998 2999 3003 3005 3004 3005 3004 3004 3004 3004 3006 3007 3008 3011 3014 3015 3017 3020 3022 3024 3025 3026 3030 3033 3036 3039 3042 3044 3046 3047 3049 3049 3049 3053 3056 3059 3063 3065 3065 3065 3067 3068 3070 3072 3074 3075 3075 3076 3078 3080 3084 3085 3083 3081 3084 3087 3088 3090 3093 3096 3095 3095 3096 3098 3101 3103 3105 3107 3109 3110 3113 3115
2977 2979 2981 2982 2984 2986 2989 2991 2993 2996 2997 2996 2997 2997 2998 2998 2999 2999 3001 3004 3005 3005 3005 3004 3004 3003 3004 3006 3007 3010 3012 3014 3016 3019 3020 3021 3022 3024 3028 3031 3034 3037 3041 3043 3045 3047 3048 3047 3047 3051 3055 3058 3060 3061 3060 3061 3064 3067 3069 3072 3072 3072 3073 3075 3076 3077 3080 3082 3082 3083 3085 3086 3087 3087 3089 3092 3094 3094 3095 3097 3099 3102 3104 3106 3108 3110 3112 3114
2977 2979 2981 2983 2984 2986 2989 2991 2993 2994 2995 2995 2997 2998 2998 2999 3000 3000 3001 3004 3005 3005 3005 3004 3004 3003 3002 3004 3007 3009 3011 3013 3015 3018 3019 3020 3021 3022 3026 3029 3032 3035 3039 3042 3044 3046 3047 3047 3046 3049 3053 3055 3055 3056 3056 3058 3061 3064 3065 3067 3069 3071 3073 3074 3073 3075 3077 3077 3078 3082 3084 3085 3085 3088 3089 3089 3091 3093 3095 3097 3098 3100 3103 3105 3106 3108 3110 3112
2977 2979 2981 2983 2985 2987 2989 2991 2993 2993 2994 2996 2997 2999 3000 3000 3000 2999 3000 3003 3005 3005 3005 3004 3004 3004 3002 3003 3005 3007 3010 3013 3014 3017 3018 3019 3020 3021 3024 3027 3030 3033 3037 3040 3041 3043 3045 3047 3047 3048 3049 3051 3051 3054 3057 3059 3060 3062 3063 3065 3067 3070 3072 3072 3070 3071 3073 3073 3074 3076 3080 3082 3084 3087 3088 3088 3088 3090 3093 3095 3097 3099 3101 3103 3105 3107 3109 3111
2978 2979 2981 2983 2986 2988 2990 2991 2993 2994 2995 2997 2998 3000 3001 3000 3000 2999 3000 3002 3004 3004 3004 3004 3004 3004 3003 3004 3005 3005 3008 3011 3012 3014 3016 3018 3019 3021 3023 3026 3029 3032 3035 3037 3040 3042 3044 3047 3048 3048 3049 3050 3052 3055 3058 3059 3060 3062 3064 3065 3066 3068 3069 3069 3067 3068 3070 3071 3072 3072 3076 3082 3083 3084 3086 3086 3087 3088 3090 3093 3096 3098 3099 3101 3103 3105 3108 3110
2978 2979 2981 2983 2986 2988 2990 2992 2994 2995 2996 2998 3000 3001 3002 3001 3000 3000 3001 3003 3004 3004 3004 3004 3004 3005 3005 3006 3006 3005 3007 3010 3011 3012 3014 3017 3019 3021 3023 3025 3028 3031 3033 3036 3039 3040 3043 3046 3048 3049 3050 3051 3053 3055 3057 3060 3060 3060 3061 3063 3064 3064 3066 3067 3067 3068 3068 3070 3070 3071 3076 3082 3083 3083 3086 3087 3088 3089 3090 3092 3094 3096 3098 3100 3102 3105 3107 3110
2979 2980 2981 2984 2986 2988 2990 2992 2995 2997 2997 2999 3001 3002 3002 3002 3001 3000 3000 3002 3004 3004 3005 3005 3005 3005 3006 3006 3007 3007 3007 3008 3010 3011 3014 3016 3018 3020 3022 3025 3027 3029 3031 3034 3036 3037 3041 3045 3046 3047 3049 3050 3051 3052 3053 3056 3057 3056 3057 3060 3061 3061 3063 3065 3067 3068 3068 3069 3069 3070 3076 3081 3082 3083 3087 3089 3089 3090 3090 3092 3093 3095 3097 3099 3102 3105 3107 3109
2979 2980 2981 2984 2986 2988 2989 2991 2994 2996 2997 2998 3000 3001 3002 3001 3000 3000 3000 3002 3003 3004 3005 3005 3006 3006 3007 3007 3008 3007 3007 3008 3009 3010 3013 3016 3018 3020 3021 3023 3027 3029 3031 3035 3036 3035 3039 3044 3044 3044 3046 3047 3047 3046 3047 3050 3053 3054 3054 3057 3059 3060 3061 3062 3065 3066 3066 3067 3068 3069 3074 3080 3082 3084 3087 3089 3089 3089 3091 3093 3094 3096 3098 3099 3101 3104 3106 3108
2980 2981 2983 2985 2986 2988 2990 2991 2993 2995 2996 2997 2998 3000 3001 3000 3000 3000 3000 3002 3003 3004 3005 3006 3006 3007 3007 3008 3009 3008 3008 3009 3009 3009 3011 3014 3017 3020 3020 3022 3026 3029 3031 3034 3035 3036 3039 3042 3043 3043 3044 3044 3045 3046 3048 3050 3052 3052 3053 3054 3057 3059 3060 3061 3062 3063 3064 3067 3068 3068 3071 3077 3081 3083 3086 3087 3087 3088 3090 3092 3093 3095 3098 3099 3101 3103 3105 3107
2980 2982 2984 2986 2988 2990 2991 2992 2993 2995 2996 2997 2998 2999 3000 3000 3000 3000 3001 3002 3003 3003 3004 3006 3006 3007 3008 3008 3009 3009 3009 3010 3009 3009 3010 3012 3016 3020 3021 3023 3026 3027 3029 3032 3034 3036 3038 3040 3041 3043 3043 3044 3045 3046 3047 3048 3050 3051 3052 3053 3055 3058 3059 3059 3060 3061 3063 3066 3067 3067 3070 3074 3078 3081 3082 3084 3085 3086 3088 3090 3092 3095 3097 3099 3101 3103 3104 3106
2981 2983 2984 2986 2989 2991 2992 2993 2994 2996 2997 2998 2998 2999 3000 3000 3000 3000 3001 3003 3002 3002 3004 3005 3005 3007 3008 3009 3010 3010 3010 3010 3011 3011 3011 3012 3017 3021 3022 3024 3026 3027 3028 3032 3034 3036 3038 3039 3041 3043 3043 3044 3045 3045 3046 3046 3048 3050 3051 3052 3053 3056 3057 3057 3058 3061 3063 3065 3065 3067 3070 3072 3076 3079 3081 3082 3083 3085 3086 3089 3092 3094 3096 3098 3100 3102 3104 3106
2983 2984 2985 2987 2989 2991 2993 2994 2995 2996 2997 2998 2998 2998 2999 3000 3000 3001 3002 3002 3002 3002 3003 3004 3005 3006 3008 3009 3010 3011 3011 3011 3011 3012 3012 3013 3016 3020 3022 3024 3025 3027 3029 3032 3034 3036 3038 3039 3040 3041 3043 3044 3045 3046 3047 3047 3047 3047 3049 3051 3052 3054 3055 3057 3058 3060 3062 3063 3064 3067 3071 3073 3075 3077 3079 3081 3082 3084 3086 3089 3092 3094 3096 3098 3100 3101 3103 3105
2984 2986 2987 2988 2989 2991 2993 2994 2996 2997 2997 2998 2998 2998 2999 2999 3000 3001 3001 3001 3001 3002 3002 3003 3004 3005 3007 3008 3009 3010 3011 3012 3011 3012 3013 3014 3015 3017 3020 3022 3024 3027 3029 3031 3033 3035 3037 3038 3039 3041 3043 3044 3045 3046 3047 3047 3046 3046 3048 3051 3053 3053 3055 3056 3057 3058 3059 3061 3063 3066 3070 3074 3077 3077 3078 3080 3082 3083 3086 3089 3091 3094 3096 3097 3099 3100 3102 3104
2986 2987 2987 2988 2990 2991 2992 2994 2996 2997 2998 2998 2997 2998 2998 2999 3000 3000 3000 3000 3000 3001 3002 3002 3003 3003 3005 3006 3007 3008 3010 3012 3012 3012 3013 3014 3016 3017 3019 3021 3023 3026 3028 3030 3032 3034 3036 3037 3038 3041 3042 3042 3044 3046 3047 3048 3047 3048 3049 3050 3051 3051 3052 3054 3054 3055 3056 3058 3061 3065 3069 3073 3078 3079 3079 3080 3082 3084 3087 3089 3091 3093 3094 3097 3098 3100 3102 3104
2986 2987 2987 2988 2990 2990 2992 2994 2996 2997 2997 2997 2997 2998 2999 2999 2999 2999 2999 2999 2999 3000 3000 3000 3001 3001 3002 3002 3004 3006 3008 3009 3010 3012 3012 3013 3016 3018 3020 3021 3022 3024 3026 3029 3031 3032 3034 3036 3038 3040 3041 3041 3043 3045 3046 3048 3049 3049 3049 3049 3049 3048 3049 3052 3054 3055 3056 3057 3060 3065 3069 3073 3076 3077 3079 3081 3083 3085 3088 3089 3091 3092 3093 3096 3097 3099 3101 3103